TimeGMT,TemperatureF,Dew PointF,Humidity,Sea Level PressureIn,VisibilityMPH,Wind Direction,Wind SpeedMPH,Gust SpeedMPH,PrecipitationIn,Events,Conditions,WindDirDegrees,DateUTC
2:50 AM,52,49,88,29.76,7,SSW,35.7,,,,Partly Cloudy,210,2012-12-31 02:50:00
5:50 AM,51,50,96,29.65,3,SSW,32.2,,,,Mist,210,2012-12-31 05:50:00
7:50 AM,51.8,51.8,100,29.59,3.1,SW,40.3,51.8,N/A,Rain,Rain,220,2012-12-31 07:50:00
8:20 AM,51.8,50.0,94,29.59,3.1,SW,35.7,-,N/A,Rain,Rain,220,2012-12-31 08:20:00
8:50 AM,51,50,96,29.58,4,SW,33.4,,,Rain,Light Drizzle,230,2012-12-31 08:50:00
8:50 AM,51.8,50.0,94,29.59,3.1,SW,33.4,46.0,N/A,Rain,Rain,230,2012-12-31 08:50:00
9:20 AM,51.8,50.0,94,29.56,3.1,SW,28.8,-,N/A,Rain,Rain,230,2012-12-31 09:20:00
9:50 AM,51.8,50.0,94,29.56,3.1,SW,21.9,-,N/A,Rain,Rain,230,2012-12-31 09:50:00
10:20 AM,51.8,50.0,94,29.56,3.1,SW,20.7,-,N/A,Rain,Light Rain,230,2012-12-31 10:20:00
10:50 AM,51.8,50.0,94,29.56,3.1,WSW,19.6,-,N/A,Rain,Light Rain,240,2012-12-31 10:50:00
11:20 AM,51.8,50.0,94,29.56,3.1,WSW,17.3,-,N/A,Rain,Light Rain,240,2012-12-31 11:20:00
11:50 AM,52,51,95,29.55,8,SW,24.2,,,Rain,Rain,230,2012-12-31 11:50:00
11:50 AM,51.8,51.8,100,29.53,5.0,SW,21.9,-,N/A,,Mostly Cloudy,230,2012-12-31 11:50:00
12:20 PM,51.8,51.8,100,29.53,5.0,WSW,21.9,-,N/A,,Mostly Cloudy,250,2012-12-31 12:20:00
12:50 PM,51.8,50.0,94,29.53,5.0,WSW,20.7,-,N/A,,Mostly Cloudy,250,2012-12-31 12:50:00
1:50 PM,51.8,50.0,94,29.53,5.0,West,19.6,-,N/A,,Partly Cloudy,260,2012-12-31 13:50:00
2:20 PM,51.8,50.0,94,29.53,6.2,West,17.3,-,N/A,,Partly Cloudy,260,2012-12-31 14:20:00
2:50 PM,51,49,90,29.55,6,West,16.1,,,,Light Haze,260,2012-12-31 14:50:00
2:50 PM,51.8,48.2,88,29.53,5.6,WSW,18.4,-,N/A,,Partly Cloudy,250,2012-12-31 14:50:00
3:20 PM,51.8,48.2,88,29.53,5.6,West,16.1,-,N/A,,Partly Cloudy,260,2012-12-31 15:20:00
3:50 PM,51.8,48.2,88,29.56,5.0,WSW,17.3,-,N/A,,Scattered Clouds,250,2012-12-31 15:50:00
4:20 PM,51.8,48.2,88,29.56,5.6,West,18.4,-,N/A,,Partly Cloudy,260,2012-12-31 16:20:00
5:50 PM,50,48,89,29.58,8,West,20.7,,,,Scattered Clouds,270,2012-12-31 17:50:00
8:50 PM,49,43,72,29.65,19,NW,20.7,,,,Partly Cloudy,310,2012-12-31 20:50:00
11:50 PM,47,40,67,29.71,25,NW,18.4,,,,Scattered Clouds,310,2012-12-31 23:50:00